EW7200 Weather Reports


time (UTC)temp
F
wind
direction
speed
knots
gust
knots
rain 1hr
in
rain 24hr
in
rain mn
in
humidity
%
barometer
mb
20260504174553 82 154 0.9 6.1 0.00 0.00 0.00 30 1017.0
20260504173046 82 135 0.9 3.5 0.00 0.00 0.00 32 1016.9
20260504171543 80 323 0.9 4.3 0.00 0.00 0.00 33 1017.0
20260504081519 52 311 0.9 1.7 0.00 0.00 0.00 83 1017.7
20260504044553 54 28 0.0 0.9 0.00 0.00 0.00 73 1018.0
20260504043110 54 28 0.0 0.9 0.00 0.00 0.00 72 1017.9
20260504041549 54 28 0.0 0.9 0.00 0.00 0.00 72 1017.9
20260504040044 55 28 0.0 0.0 0.00 0.00 0.00 71 1017.9
20260504034550 55 28 0.0 0.9 0.00 0.00 0.00 71 1017.9
20260504033043 55 28 0.0 0.9 0.00 0.00 0.00 71 1017.9
20260504031550 56 28 0.0 0.0 0.00 0.00 0.00 71 1017.9
20260504030100 56 28 0.0 0.0 0.00 0.00 0.00 70 1018.0
20260504024542 56 28 0.0 0.9 0.00 0.00 0.00 70 1018.0
20260504023042 57 28 0.0 0.9 0.00 0.00 0.00 69 1018.0
20260504021546 58 28 0.0 0.9 0.00 0.00 0.00 66 1017.9
20260504020041 58 15 0.0 0.9 0.00 0.00 0.00 65 1017.6
20260504014540 59 333 0.0 0.9 0.00 0.00 0.00 63 1017.5
20260504013044 60 333 0.0 0.9 0.00 0.00 0.00 61 1017.3
20260504011539 61 333 0.0 0.9 0.00 0.00 0.00 59 1017.2
20260504010050 62 331 0.0 0.9 0.00 0.00 0.00 56 1017.0
20260504004543 63 331 0.0 0.9 0.00 0.00 0.00 55 1016.8
20260504003036 64 331 0.0 0.9 0.00 0.00 0.00 54 1016.8
20260504001539 65 331 0.0 0.0 0.00 0.00 0.00 52 1016.8
20260504000034 67 340 0.0 0.9 0.00 0.00 0.00 48 1016.6
20260503234536 68 340 0.0 0.9 0.00 0.00 0.00 47 1016.6
20260503233033 69 340 0.0 1.7 0.00 0.00 0.00 45 1016.5
20260503231533 70 92 0.0 0.9 0.00 0.00 0.00 44 1016.5
20260503230036 70 319 0.0 1.7 0.00 0.00 0.00 42 1016.6
20260503224529 70 138 0.0 3.5 0.00 0.00 0.00 41 1016.7
20260503223028 71 316 0.9 7.0 0.00 0.00 0.00 40 1016.8
20260503221532 71 311 0.0 3.5 0.00 0.00 0.00 38 1016.7
20260503220033 71 343 0.0 4.3 0.00 0.00 0.00 36 1016.7
20260503214533 71 240 0.0 2.6 0.00 0.00 0.00 38 1016.7
20260503213031 71 291 0.9 3.5 0.00 0.00 0.00 38 1016.9
20260503211522 71 173 0.9 2.6 0.00 0.00 0.00 37 1016.8
20260503210021 71 263 0.9 5.2 0.00 0.00 0.00 36 1016.9
20260503204526 71 336 1.7 7.0 0.00 0.00 0.00 37 1016.9
20260503203019 71 290 0.9 4.3 0.00 0.00 0.00 36 1017.0
20260503201519 71 205 0.9 2.6 0.00 0.00 0.00 36 1017.2
20260503200018 72 9 1.7 4.3 0.00 0.01 0.00 37 1017.3
20260503194520 73 157 2.6 5.2 0.00 0.01 0.00 34 1017.5
20260503193018 75 271 0.0 2.6 0.00 0.01 0.00 36 1017.8
20260503191517 75 174 0.9 4.3 0.00 0.01 0.00 35 1018.3
20260503190026 75 256 0.9 5.2 0.00 0.01 0.00 36 1018.4
20260503184515 74 136 0.9 5.2 0.00 0.01 0.00 35 1018.8
20260503183014 75 158 0.9 7.8 0.00 0.01 0.00 33 1019.0
20260503181531 75 163 4.3 10.4 0.00 0.01 0.00 35 1019.2
20260503180024 75 225 0.9 5.2 0.00 0.01 0.00 37 1019.5